Simultaneous Nadir Overpasses (SNOs) Predictions

Prediction of SNOs between AQUA and NOAA-19 Satellite Orbit:

Table of predicted SNOs for the next 14.0 days since TLE Epoch: 7/13/2024
Index Date (AQUA) Time (AQUA) Lat,Lon (AQUA) SZA (AQUA ) Date (NOAA-19) Time (NOAA-19) Lat,Lon (NOAA-19) SZA (NOAA-19 ) Distance(km) Time Diff (sec)
1 07/14/2024 23:20:05 -75.70, 8.26 125.84 07/14/2024 23:19:22 -75.71, 8.35 125.83 2.56 43
2 07/15/2024 00:09:28 75.74, 175.81 54.21 07/15/2024 00:10:24 75.76, 175.75 54.23 2.69 56
3 07/17/2024 03:09:54 75.72, 130.80 54.54 07/17/2024 03:09:20 75.71, 130.92 54.54 3.48 34
4 07/17/2024 03:59:16 -75.75, -61.65 125.42 07/17/2024 04:00:14 -75.74, -61.70 125.43 1.85 58
5 07/19/2024 06:59:40 -75.67,-106.48 125.12 07/19/2024 06:59:10 -75.69,-106.57 125.11 3.01 30
6 07/19/2024 07:49:04 75.77, 60.90 54.99 07/19/2024 07:50:12 75.74, 60.87 54.96 2.66 68
7 07/21/2024 10:49:27 75.68, 16.09 55.30 07/21/2024 10:49:08 75.68, 15.97 55.31 3.26 19
8 07/21/2024 11:38:50 -75.76,-176.48 124.61 07/21/2024 11:40:01 -75.75,-176.52 124.62 1.53 71
9 07/23/2024 14:39:13 -75.72, 138.59 124.23 07/23/2024 14:38:56 -75.72, 138.72 124.22 3.46 17
10 07/23/2024 15:28:43 76.11, -54.97 56.20 07/23/2024 15:29:50 76.14, -52.56 56.20 64.28 67
11 07/25/2024 18:28:58 75.72, -98.81 56.24 07/25/2024 18:28:54 75.70, -98.80 56.23 2.02 4



Historial Predications of SNOs between AQUA and NOAA-19
